This is the latest recevied weather packets stored in our database for station/object K5BOU. If no packets are shown the sender has not sent any weather packets the latest 10 day(s).
| Time | Temp. | Humidity | Pressure | Rain* | Wind** | Luminosity | Snow |
|---|---|---|---|---|---|---|---|
| 1788197944 | 34.44° C | 61% | 1014.8 hPa | 0 mm | - | 653 W/m² | - |
| 1788197643 | 35° C | 61% | 1014.9 hPa | 0 mm | - | 714 W/m² | - |
| 1788197340 | 35° C | 65% | 1015 hPa | 0 mm | - | 681 W/m² | - |
| 1788197035 | 33.89° C | 65% | 1014.9 hPa | 0 mm | - | 741 W/m² | - |
| 1788196735 | 33.33° C | 64% | 1015 hPa | 0 mm | - | 770 W/m² | - |
| 1788196431 | 32.78° C | 70% | 1015.1 hPa | 0 mm | - | 792 W/m² | - |
| 1788196128 | 33.33° C | 67% | 1014.9 hPa | 0 mm | - | 635 W/m² | - |
| 1788195823 | 33.89° C | 67% | 1015.1 hPa | 0 mm | - | 794 W/m² | - |
| 1788195520 | 34.44° C | 67% | 1015.1 hPa | 0 mm | - | 286 W/m² | - |
| 1788195216 | 33.89° C | 67% | 1015.3 hPa | 0 mm | - | 761 W/m² | - |
| 1788194912 | 33.33° C | 66% | 1015 hPa | 0 mm | - | 760 W/m² | - |
| 1788194608 | 33.33° C | 66% | 1014.9 hPa | 0 mm | - | 787 W/m² | - |
| 1788194303 | 33.33° C | 68% | 1015.1 hPa | 0 mm | - | 760 W/m² | - |
| 1788193999 | 33.89° C | 67% | 1015.1 hPa | 0 mm | - | 728 W/m² | - |
| 1788193697 | 33.33° C | 69% | 1015.3 hPa | 0 mm | - | 747 W/m² | - |
| 1788193393 | 32.78° C | 70% | 1015.2 hPa | 0 mm | - | 825 W/m² | - |
| 1788193091 | 33.33° C | 69% | 1015.3 hPa | 0 mm | - | 479 W/m² | - |
| 1788192788 | 32.78° C | 73% | 1015.2 hPa | 0 mm | - | 755 W/m² | - |
| 1788192482 | 32.78° C | 73% | 1015.4 hPa | 0 mm | - | 792 W/m² | - |
| 1788192176 | 31.67° C | 78% | 1015.3 hPa | 0 mm | - | 752 W/m² | - |
| 1788191871 | 31.67° C | 76% | 1015.4 hPa | 0 mm | - | 125 W/m² | - |
| 1788191566 | 31.67° C | 76% | 1015.1 hPa | 0 mm | - | 699 W/m² | - |
| 1788191262 | 31.67° C | 76% | 1015.3 hPa | 0 mm | - | 708 W/m² | - |
| 1788190958 | 32.22° C | 78% | 1015.4 hPa | 0 mm | - | 267 W/m² | - |
| 1788190657 | 32.78° C | 77% | 1015.4 hPa | 0 mm | - | 725 W/m² | - |
* Rain latest hour (hover to see other rain measurements)
** Current wind speed in m/s (hover to see current wind gust speed)